Date String (YYYY-MM-DD hh:mm:ss) UTC,Instrument flags,Ambient pressure (hPa),Sample flow (lpm),Bypass flow (lpm),Sample temperature (°C),Ambient temperature (°C),ASC tube jacket temperature (°C),LED temperature (°C),Box temperature (°C),Sample RH (%),Span deviation,Mass concentration (μg/m³),Mass concentration (μg/m³),Mass concentration (μg/m³)
DateTimeUTC,F1_M11,P_M11,Q1_M11,Q2_M11,T1_M11,T2_M11,T3_M11,T4_M11,T5_M11,U1_M11,ZSPAN_M11,X0_M11,X2_M11,X1_M11
2021-10-04 17:00:00,,0833.4,5.00,0.00,30.1,29.1,00.0,39.0,31.9,14.2,0000.0,0010.99,0003.78,0003.28
2021-10-04 17:01:00,,0833.4,5.00,0.00,30.1,28.8,00.0,39.0,31.8,14.1,0000.0,0009.95,0003.78,0003.28
2021-10-04 17:02:00,,0833.4,5.00,0.00,30.0,26.9,00.0,39.0,31.3,14.2,0000.0,0009.44,0003.75,0003.28
2021-10-04 17:03:00,,0833.4,5.01,0.00,29.8,26.2,00.0,39.0,31.1,14.0,0000.2,0009.51,0003.75,0003.29
2021-10-04 17:04:00,,0833.4,5.00,0.00,29.8,26.6,00.0,38.9,31.2,14.1,0000.0,0009.88,0003.76,0003.29
2021-10-04 17:05:00,,0833.4,5.01,0.00,29.7,27.0,00.0,38.9,31.3,14.4,0000.0,0008.69,0003.75,0003.29
2021-10-04 17:06:00,,0833.4,4.99,0.00,29.7,27.4,00.0,38.8,31.3,14.4,0000.3,0007.94,0003.77,0003.29
2021-10-04 17:07:00,,0833.4,5.01,0.00,29.7,27.8,00.0,38.8,31.4,14.3,0001.3,0007.63,0003.77,0003.30
2021-10-04 17:08:00,,0833.4,5.00,0.00,29.7,28.1,00.0,38.8,31.5,14.1,0001.3,0007.52,0003.75,0003.30
2021-10-04 17:09:00,,0833.4,5.00,0.00,29.8,28.3,00.0,38.8,31.5,14.0,0001.4,0007.87,0003.74,0003.31
2021-10-04 17:10:00,,0833.3,4.99,0.00,29.8,28.6,00.0,38.8,31.6,14.1,0001.3,0008.37,0003.75,0003.31
2021-10-04 17:11:00,,0833.3,5.00,0.00,29.9,28.7,00.0,38.8,31.7,13.8,0000.8,0008.41,0003.75,0003.31
2021-10-04 17:12:00,,0833.3,5.00,0.00,29.9,28.9,00.0,38.8,31.8,13.7,0001.1,0008.52,0003.76,0003.30
2021-10-04 17:13:00,,0833.3,5.00,0.00,29.9,29.0,00.0,38.9,31.8,13.7,0001.3,0009.16,0003.78,0003.30
2021-10-04 17:14:00,,0833.3,5.00,0.00,30.0,29.1,00.0,38.9,31.9,13.9,0002.1,0009.84,0003.77,0003.29
2021-10-04 17:15:00,,0833.3,5.01,0.00,30.0,28.5,00.0,38.9,31.7,13.8,0002.3,0009.78,0003.77,0003.28
2021-10-04 17:16:00,,0833.2,5.01,0.00,29.9,26.6,00.0,38.9,31.2,13.9,0002.1,0009.72,0003.75,0003.27
2021-10-04 17:17:00,,0833.3,5.00,0.00,29.7,26.1,00.0,38.9,31.0,13.6,0001.7,0009.57,0003.72,0003.27
2021-10-04 17:18:00,,0833.2,5.00,0.00,29.7,26.6,00.0,38.9,31.2,13.8,0002.0,0009.48,0003.69,0003.27
2021-10-04 17:19:00,,0833.1,5.00,0.00,29.6,27.0,00.0,38.8,31.2,14.3,0001.1,0009.84,0003.69,0003.26
2021-10-04 17:20:00,,0833.1,5.00,0.00,29.6,27.4,00.0,38.8,31.3,14.9,0000.0,0010.44,0003.70,0003.24
2021-10-04 17:21:00,,0833.1,4.99,0.00,29.7,27.8,00.0,38.8,31.4,15.3,0000.0,0010.62,0003.71,0003.24
2021-10-04 17:22:00,,0833.2,5.01,0.00,29.7,28.1,00.0,38.7,31.5,14.9,0000.0,0010.68,0003.71,0003.24
2021-10-04 17:23:00,,0833.2,4.99,0.00,29.7,28.3,00.0,38.7,31.5,14.6,0000.0,0010.56,0003.70,0003.24
2021-10-04 17:24:00,,0833.2,5.00,0.00,29.8,28.5,00.0,38.8,31.6,14.9,0000.0,0010.89,0003.72,0003.23
2021-10-04 17:25:00,,0833.2,5.01,0.00,29.8,28.7,00.0,38.8,31.7,14.7,0000.0,0010.37,0003.74,0003.23
2021-10-04 17:26:00,,0833.1,5.00,0.00,29.9,28.9,00.0,38.8,31.7,14.7,0000.0,0009.92,0003.75,0003.25
2021-10-04 17:27:00,,0833.1,5.00,0.00,29.9,29.0,00.0,38.8,31.8,14.6,0000.0,0010.04,0003.76,0003.26
2021-10-04 17:28:00,,0833.1,5.00,0.00,29.9,29.1,00.0,38.8,31.8,14.4,0000.0,0010.46,0003.79,0003.27
2021-10-04 17:29:00,,0833.2,5.00,0.00,30.0,29.0,00.0,38.9,31.8,14.5,0000.0,0010.81,0003.82,0003.27
2021-10-04 17:30:00,,0833.2,5.01,0.00,29.9,27.4,00.0,38.9,31.4,14.6,0000.0,0011.68,0003.83,0003.28
2021-10-04 17:31:00,,0833.1,4.99,0.00,29.7,26.2,00.0,38.8,31.0,14.8,0000.7,0011.08,0003.81,0003.28
2021-10-04 17:32:00,,0833.1,4.99,0.00,29.7,26.5,00.0,38.8,31.1,15.0,0000.0,0010.31,0003.79,0003.27
2021-10-04 17:33:00,,0833.1,5.01,0.00,29.6,26.9,00.0,38.8,31.2,14.8,0000.0,0010.38,0003.78,0003.27
2021-10-04 17:34:00,,0833.1,4.99,0.00,29.6,27.3,00.0,38.7,31.2,14.9,0000.0,0010.74,0003.80,0003.28
2021-10-04 17:35:00,,0833.1,5.01,0.00,29.6,27.7,00.0,38.7,31.3,14.9,0000.0,0010.26,0003.78,0003.28
2021-10-04 17:36:00,,0833.1,4.99,0.00,29.7,28.0,00.0,38.7,31.4,14.9,0000.0,0009.75,0003.75,0003.28
2021-10-04 17:37:00,,0833.1,5.00,0.00,29.7,28.3,00.0,38.7,31.5,14.8,0000.0,0009.69,0003.74,0003.28
2021-10-04 17:38:00,,0833.1,5.00,0.00,29.7,28.5,00.0,38.7,31.6,14.4,0000.0,0009.79,0003.72,0003.27
2021-10-04 17:39:00,,0833.1,4.98,0.00,29.8,28.7,00.0,38.7,31.6,14.6,0000.0,0009.56,0003.69,0003.26
2021-10-04 17:40:00,,0833.1,5.00,0.00,29.8,28.8,00.0,38.7,31.7,14.5,0000.0,0009.19,0003.66,0003.26
2021-10-04 17:41:00,,0833.1,5.00,0.00,29.9,29.0,00.0,38.8,31.7,14.5,0000.0,0008.20,0003.62,0003.26
2021-10-04 17:42:00,,0833.1,5.01,0.00,29.9,29.1,00.0,38.8,31.8,14.3,0000.0,0007.75,0003.63,0003.26
2021-10-04 17:43:00,,0833.1,4.98,0.00,29.9,28.0,00.0,38.8,31.5,14.5,0000.0,0008.09,0003.62,0003.26
2021-10-04 17:44:00,,0833.1,5.01,0.00,29.7,26.3,00.0,38.8,31.0,14.3,0000.0,0007.98,0003.62,0003.26
2021-10-04 17:45:00,,0833.1,5.00,0.00,29.6,26.2,00.0,38.8,31.0,14.4,0000.0,0007.60,0003.62,0003.25
2021-10-04 17:46:00,,0833.1,4.99,0.00,29.6,26.7,00.0,38.8,31.1,14.5,0000.0,0008.20,0003.63,0003.25
2021-10-04 17:47:00,,0833.1,5.01,0.00,29.6,27.1,00.0,38.7,31.2,14.3,0000.0,0008.56,0003.64,0003.25
2021-10-04 17:48:00,,0833.1,4.99,0.00,29.6,27.5,00.0,38.7,31.3,13.9,0000.0,0008.64,0003.64,0003.24
2021-10-04 17:49:00,,0833.1,5.01,0.00,29.6,27.9,00.0,38.7,31.4,13.8,0000.0,0008.91,0003.69,0003.25
2021-10-04 17:50:00,,0833.1,4.99,0.00,29.6,28.2,00.0,38.7,31.4,14.3,0000.3,0009.10,0003.72,0003.26
2021-10-04 17:51:00,,0833.1,5.00,0.00,29.7,28.4,00.0,38.7,31.5,14.4,0000.6,0009.77,0003.76,0003.25
2021-10-04 17:52:00,,0833.1,4.99,0.00,29.7,28.6,00.0,38.7,31.6,14.4,0000.0,0010.94,0003.80,0003.26
2021-10-04 17:53:00,,0833.1,5.01,0.00,29.8,28.8,00.0,38.7,31.7,14.7,0000.5,0010.90,0003.80,0003.26
2021-10-04 17:54:00,,0833.1,4.99,0.00,29.8,28.9,00.0,38.7,31.7,14.4,0000.0,0010.45,0003.80,0003.27
2021-10-04 17:55:00,,0833.1,5.00,0.00,29.9,28.9,00.0,38.7,31.7,14.4,0000.0,0010.68,0003.85,0003.28
2021-10-04 17:56:00,,0833.0,5.00,0.00,29.8,27.5,00.0,38.8,31.4,14.3,0000.0,0011.54,0003.90,0003.28
2021-10-04 17:57:00,,0833.1,4.99,0.00,29.7,26.1,00.0,38.7,31.0,14.7,0000.0,0011.27,0003.91,0003.30
2021-10-04 17:58:00,,0833.1,5.00,0.00,29.6,26.3,00.0,38.7,31.0,14.9,0000.0,0010.81,0003.92,0003.31
2021-10-04 17:59:00,,0833.1,5.00,0.00,29.5,26.7,00.0,38.7,31.1,14.6,0000.0,0011.57,0003.94,0003.32
